EHI
4 4 6 7 8 11 10 8 7 7 7 6 5 4 3 1 1 1 1 2 1 1 0 0 0 0 0 0 0 0 0 0 0 0 0 0 0 0 0 0 0 0 0
6 6 7 9 11 13 12 9 8 8 9 8 6 4 3 1 1 2 3 3 3 2 1 0 0 0 0 0 0 0 0 0 0 0 0 0 0 0 0 0 0 0 0
9 8 9 11 13 13 12 11 10 9 10 9 7 4 2 1 1 2 3 4 3 3 2 1 0 0 0 0 0 0 0 0 0 0 0 0 0 0 0 0 0 0 0
11 9 9 11 12 12 12 12 12 11 10 9 7 4 3 2 2 2 3 3 3 3 2 1 0 0 0 0 0 0 0 0 0 0 0 1 0 0 0 0 0 0 0
10 9 8 9 12 13 13 14 13 12 11 9 6 5 5 4 3 3 3 3 3 2 1 0 0 0 0 0 0 0 0 0 0 0 0 0 0 0 0 0 0 0 0
7 6 7 8 11 14 15 13 11 10 10 9 7 7 6 6 6 5 4 3 2 1 0 0 0 0 0 0 0 0 0 0 0 0 0 0 0 0 0 0 0 0 0
4 4 6 8 10 13 14 11 9 8 8 7 7 7 8 7 7 6 5 3 1 0 0 0 0 0 0 0 0 0 0 0 0 0 0 0 0 0 0 0 0 0 0
3 4 5 7 9 12 14 13 10 8 7 6 5 5 6 6 6 6 5 4 1 0 0 0 0 0 0 0 0 0 0 0 1 0 0 0 0 0 0 1 1 1 0
3 3 4 8 10 11 13 14 13 9 6 5 4 3 4 4 5 5 4 3 2 1 1 1 0 0 0 0 0 0 0 0 0 0 0 0 0 0 1 2 2 2 1
4 4 6 8 11 11 11 13 12 9 5 4 4 4 3 2 2 2 2 2 2 2 3 3 2 1 1 1 1 0 0 0 0 0 0 0 0 1 2 3 3 3 3
4 5 7 9 12 11 10 11 12 8 5 4 4 4 3 1 0 1 1 1 1 3 4 5 4 3 3 2 1 0 0 0 0 0 1 1 1 1 3 4 3 3 3
5 6 7 8 12 13 12 13 12 8 5 4 4 3 1 0 0 1 1 0 1 3 5 6 6 4 3 3 2 1 0 1 1 2 3 3 3 3 4 5 4 3 3
7 7 7 8 11 13 14 14 11 8 6 4 4 2 1 1 1 2 3 2 1 3 5 6 6 4 4 4 3 1 1 2 4 4 5 5 5 4 5 6 5 4 3
11 9 8 9 12 13 13 12 9 6 6 7 6 5 4 3 2 3 4 3 1 2 3 5 5 5 5 5 4 3 3 3 4 4 4 4 4 4 5 5 5 4 3
14 11 9 10 12 14 12 10 9 8 9 11 11 10 8 6 4 4 5 5 5 4 4 4 4 5 6 6 5 4 4 4 5 5 5 5 4 4 3 3 3 3 2
14 11 9 10 12 13 13 10 10 12 13 14 15 15 12 9 8 9 8 7 7 7 6 6 6 7 8 6 4 3 5 6 8 8 8 7 5 3 2 2 1 1 1
11 8 6 8 11 13 13 12 13 15 16 17 18 18 16 14 12 12 10 8 7 6 5 6 8 9 8 5 3 2 4 7 9 9 9 7 5 3 2 1 0 0 0
8 5 3 6 10 13 14 13 14 16 17 17 18 19 18 15 13 12 12 11 7 4 4 5 7 8 6 4 2 1 3 5 6 7 7 5 3 2 2 1 1 1 1
6 4 4 6 10 13 13 12 12 14 16 16 17 18 18 15 12 12 14 13 9 6 5 5 6 7 7 4 1 1 3 4 5 5 4 3 2 2 1 1 0 0 0
7 7 8 10 12 13 12 11 10 11 13 13 13 15 16 14 13 13 15 14 11 9 7 7 8 9 9 6 1 1 4 6 6 6 5 3 2 1 0 0 0 0 0
10 11 12 12 13 13 12 10 10 10 11 11 9 11 13 13 13 12 13 14 13 11 9 8 9 11 11 7 2 1 4 6 8 8 7 5 2 0 0 0 0 0 0
10 11 12 12 12 12 11 9 9 9 10 9 8 10 12 12 11 11 11 13 13 11 9 10 10 11 10 7 3 1 2 4 7 8 6 4 1 0 0 0 0 0 0
9 10 10 11 11 10 9 8 7 7 9 8 9 11 11 10 10 10 11 13 12 11 9 9 9 10 9 6 3 1 0 2 4 4 3 1 0 0 0 0 0 0 0
12 12 13 12 11 9 8 6 6 7 8 7 6 8 10 10 10 11 12 13 12 11 9 8 8 8 8 6 4 2 1 1 1 1 0 0 0 0 0 0 0 0 0
15 15 16 14 10 8 7 6 6 7 7 5 4 5 8 9 9 10 11 11 10 9 7 6 6 7 7 5 3 2 2 1 0 0 0 0 0 0 1 1 0 0 0
15 16 16 14 10 7 6 6 7 7 6 5 3 4 6 8 8 8 8 7 7 6 4 4 5 6 6 4 2 1 1 1 0 0 0 0 0 1 2 2 1 0 0
Wind_Speed
4 4 4 5 4 4 4 3 3 3 3 2 2 1 1 0 0 0 0 0 1 1 2 2 2 2 2 1 2 2 2 1 1 1 1 2 1 1 1 1 1 2 2
4 5 5 5 5 5 5 4 4 3 3 2 2 2 2 1 1 0 1 0 1 2 2 2 2 2 2 2 2 2 1 0 1 1 1 2 3 2 1 1 1 2 1
8 6 6 6 6 6 7 6 5 4 4 3 2 2 2 1 1 1 1 0 0 1 1 2 2 2 2 2 2 2 2 1 0 1 2 1 2 2 2 1 1 1 1
7 7 7 6 7 7 6 5 5 5 4 4 3 3 2 1 1 1 0 1 0 0 1 1 2 2 2 2 2 2 2 2 2 1 1 2 2 1 2 2 1 1 2
8 8 9 8 7 6 5 5 4 3 3 4 4 4 2 2 1 0 0 0 1 0 1 1 1 1 1 2 2 2 2 2 2 2 1 1 1 1 2 2 2 2 2
8 8 7 6 5 5 5 5 5 4 4 4 4 5 4 3 2 1 1 1 0 0 1 1 2 2 2 2 2 2 2 2 2 1 2 2 2 2 2 3 2 2 2
7 6 7 7 7 6 6 6 5 4 4 5 4 4 5 4 4 3 3 2 1 1 2 1 2 2 2 2 2 2 2 2 2 2 2 2 2 2 2 2 2 2 2
6 7 8 8 7 7 6 6 6 5 5 5 4 4 4 3 3 3 3 3 3 2 2 2 2 2 2 2 2 2 2 2 2 2 2 2 2 2 2 2 2 1 1
6 7 7 7 7 7 8 8 7 6 5 5 4 3 3 3 3 3 3 2 2 2 2 2 2 2 2 2 2 2 2 2 2 2 2 2 2 2 2 2 2 2 2
5 5 6 6 6 7 6 6 6 6 5 4 4 4 3 3 3 2 2 2 2 2 2 2 2 2 2 2 2 2 2 2 2 2 2 2 2 2 2 2 2 2 2
5 5 5 5 5 5 5 5 5 4 4 4 3 3 3 3 3 3 3 3 2 2 3 2 2 2 2 2 2 2 2 2 2 2 2 3 2 2 1 2 2 2 2
4 5 5 4 4 4 4 5 5 5 5 4 3 3 2 2 3 3 3 3 3 3 3 2 2 2 2 2 3 3 3 3 3 3 2 3 1 1 1 1 2 2 2
3 3 3 4 5 5 5 5 5 5 5 4 3 3 3 3 3 3 3 3 3 2 2 2 3 3 3 3 3 3 3 3 3 3 3 3 2 2 1 1 2 2 2
3 4 4 4 4 5 5 4 4 5 5 5 5 4 4 4 4 3 2 3 2 2 2 3 3 3 3 3 3 3 3 3 2 2 2 3 3 3 2 2 2 1 1
3 4 5 4 4 4 4 4 4 4 5 5 5 5 4 4 3 3 3 3 2 3 3 2 2 2 2 2 3 3 3 2 2 1 2 2 2 2 2 2 2 2 1
4 4 4 5 5 5 4 3 3 3 4 4 4 3 3 3 4 4 3 2 2 2 2 2 2 2 2 2 3 3 2 2 2 2 2 2 1 1 1 1 2 3 3
4 4 5 5 5 5 5 5 4 4 4 4 3 3 3 3 3 3 3 3 3 2 3 3 2 3 3 2 3 4 3 2 2 2 1 1 1 0 0 1 1 1 1
4 4 4 5 4 4 4 3 3 3 4 3 3 3 3 3 3 2 3 3 2 2 2 2 2 2 2 1 3 4 3 2 1 1 1 1 1 0 1 1 1 0 0
3 4 5 5 4 4 4 4 3 3 3 3 3 3 3 4 3 3 2 2 1 1 1 1 1 2 2 1 3 3 2 1 1 1 1 1 1 1 1 2 1 0 1
2 2 3 3 4 3 4 4 4 3 4 4 4 4 4 4 4 3 2 2 2 1 1 1 1 2 2 2 3 4 2 2 1 1 1 2 2 1 2 2 2 1 2
2 2 3 3 3 4 4 4 4 4 4 3 3 4 4 4 4 3 2 2 2 2 1 0 1 1 2 1 2 4 3 3 2 1 1 1 2 2 2 2 2 3 2
0 2 2 1 1 3 5 4 4 4 2 2 3 3 3 4 4 4 3 2 3 2 1 1 1 1 1 1 2 3 3 3 3 2 2 1 2 2 2 2 1 1 1
1 1 2 1 1 2 4 4 4 2 2 2 2 2 2 3 4 4 4 3 2 2 2 1 1 1 1 1 1 2 3 3 2 2 1 1 2 2 2 1 2 2 1
1 1 1 1 1 1 2 3 3 2 3 3 2 2 3 3 3 3 3 3 3 3 2 2 2 1 1 1 1 1 1 2 1 1 0 1 1 1 1 1 1 1 1
1 1 2 2 1 1 1 2 2 3 3 3 3 3 3 3 3 2 1 2 3 4 4 3 3 3 3 3 3 2 2 2 1 1 1 1 1 1 0 0 0 0 1
1 1 1 2 1 1 1 1 2 3 4 3 2 2 2 2 2 2 1 2 0 1 3 4 4 3 4 4 3 3 2 2 3 3 1 1 1 1 1 1 1 0 1
Wind_Direction
212 187 181 174 161 159 167 174 160 153 135 121 123 115 116 33 333 249 169 131 125 129 135 135 132 131 130 147 133 122 113 103 106 76 359 345 338 309 275 252 240 238 231
196 191 182 177 173 176 180 182 181 171 164 156 148 145 141 163 195 302 51 143 168 168 161 149 157 144 135 136 135 130 118 114 120 127 84 345 343 340 313 275 240 250 244
198 195 189 188 183 188 189 190 190 183 177 162 126 96 68 38 24 7 341 324 208 186 172 165 162 160 160 173 175 159 162 182 167 154 156 174 253 313 329 325 311 293 267
197 194 194 193 197 199 191 186 185 186 181 165 155 156 164 192 227 221 255 334 332 201 174 162 167 173 173 180 184 169 177 173 191 199 203 204 188 192 307 320 320 304 272
197 196 197 198 199 193 187 180 175 187 182 173 172 170 182 200 210 98 88 353 342 92 140 149 156 182 188 185 180 169 176 179 186 191 186 195 212 206 215 276 303 314 287
199 196 190 187 191 182 177 173 174 191 184 181 180 181 189 188 183 197 202 232 256 273 203 180 179 186 193 194 191 187 186 191 192 195 195 190 191 199 202 231 270 290 296
194 190 185 187 187 179 179 176 176 193 194 189 192 193 194 190 196 204 205 208 219 235 243 213 199 201 204 197 180 181 199 194 196 210 218 221 221 197 190 203 239 270 292
192 196 196 192 188 182 178 178 184 197 195 195 200 193 193 194 206 209 204 209 217 229 233 227 225 219 211 202 183 185 208 194 208 223 219 228 231 206 200 194 190 247 287
193 196 192 187 182 181 185 186 188 197 199 202 197 194 196 200 210 210 205 213 220 227 221 221 219 224 213 201 186 194 211 207 220 232 224 234 241 221 218 207 198 191 240
187 187 187 189 186 185 185 182 188 197 200 199 201 205 203 206 205 192 204 218 227 225 209 214 210 215 215 195 186 202 209 200 229 231 236 248 249 231 216 201 201 203 204
194 190 189 188 181 173 173 178 184 187 195 202 204 206 203 198 194 199 211 215 222 216 214 215 207 212 216 209 196 214 211 213 233 242 237 258 257 233 217 193 184 196 197
192 186 179 168 163 172 174 179 185 187 194 186 179 198 206 194 198 209 216 212 217 220 212 205 206 215 223 214 205 218 221 217 226 236 233 249 242 225 209 187 196 205 204
168 165 166 170 173 173 177 185 189 191 185 169 174 198 210 209 218 222 218 215 216 218 205 191 211 222 224 218 218 216 221 221 222 224 227 235 222 238 234 211 216 219 214
164 165 174 175 174 175 177 179 188 186 177 174 181 194 215 220 223 220 215 221 215 209 215 215 222 227 224 215 219 216 219 222 231 234 236 233 225 225 219 217 216 207 204
166 179 184 181 176 175 179 181 182 180 178 181 193 206 214 213 214 213 215 219 216 222 219 214 220 230 225 226 221 215 213 214 228 240 246 240 229 215 206 215 207 190 197
190 189 184 178 179 183 187 186 188 182 170 181 202 202 194 204 210 209 203 204 218 223 215 213 213 222 237 242 201 191 201 199 204 234 259 245 220 224 194 186 183 181 189
195 194 194 191 192 187 183 190 192 177 174 190 199 192 189 198 208 206 192 203 216 211 216 222 214 228 250 234 196 186 181 183 198 213 234 247 261 181 193 168 152 154 189
193 197 199 197 196 183 176 182 165 164 179 192 202 203 199 205 202 190 200 209 203 209 223 230 227 232 263 229 198 183 177 168 191 204 210 212 260 254 166 159 111 26 272
208 204 199 193 184 174 169 155 160 166 178 194 197 198 201 203 193 191 209 210 181 208 238 243 234 231 262 225 190 172 165 158 214 229 212 203 216 250 127 134 149 325 317
206 204 179 165 173 183 163 158 174 177 195 201 197 192 193 196 192 191 193 177 165 194 204 270 264 240 253 242 185 173 165 171 208 232 232 213 196 172 152 161 173 227 280
194 172 154 166 186 173 156 162 179 200 208 196 182 182 190 190 184 177 175 166 167 160 156 182 288 280 268 253 185 169 173 187 191 211 245 244 190 173 178 180 202 228 227
159 146 139 171 191 165 156 172 202 215 196 177 175 180 181 177 165 161 170 167 164 160 174 185 308 315 301 260 213 178 184 184 180 207 224 221 174 167 173 188 221 195 162
198 154 144 154 212 187 171 186 219 200 159 161 177 178 168 167 165 166 169 167 170 173 191 200 231 291 313 299 241 193 189 195 194 216 216 190 169 169 164 179 179 164 158
208 148 126 139 253 241 203 207 211 174 157 172 181 175 166 164 160 165 171 174 184 188 196 207 222 249 272 283 255 205 187 177 173 196 91 96 120 124 131 120 167 188 192
202 160 155 184 232 248 237 213 190 165 165 179 183 175 172 166 157 149 168 188 204 197 195 211 211 210 230 243 225 189 189 190 176 134 98 80 98 104 119 170 170 163 168
207 178 162 172 205 203 240 228 186 169 167 175 183 174 168 159 152 144 87 47 145 183 198 206 208 225 220 205 192 180 167 155 142 130 146 174 191 215 220 225 240 213 212